Home   Weather   19°19'N, 99°04'W   Past weeks
Flag for Mexico

Past Weather in 19°19'N, 99°04'W, Mexico — Yesterday and Last 2 Weeks

Now
70 °F

Scattered clouds.


Feels Like: 70 °F
Forecast: 71 / 57 °F
Wind: 3 mph from East

Location: Mexico City / Licenci

Current Time: Jul 19, 2019 at 1:53:18 pm

Latest Report: Jul 19, 2019 at 12:50 pm


Visibility: 5 mi

Pressure: 29.88 "Hg

Humidity: 57%

Dew Point: 54 °F

Location of 19°19'N, 99°04'WLocation

Past Weather in 19°19'N, 99°04'W — Graph

°F

19°19'N, 99°04'W Temperature Yesterday

Maximum temperature yesterday: 73 °F (at 2:45 pm)
Minimum temperature yesterday: 57 °F (at 5:43 am)
Average temperature yesterday: 63 °F

High & Low Weather Summary for the Past Weeks

 TemperatureHumidityPressure
High79 °F (Jul 4, 4:45 pm)100% (Jul 13, 6:52 am)30.45 "Hg (Jul 13, 6:52 am)
Low55 °F (Jul 7, 7:45 am)17% (Jul 5, 5:45 pm)29.58 "Hg (Jul 4, 6:44 pm)
Average65 °F65%30.21 "Hg
* Reported Jul 4 11:48 am — Jul 19 11:52 am, 19°19'N, 99°04'W. Weather by CustomWeather, © 2019

Note: Actual official high and low records may vary slightly from our data, if they occured in-between our weather recording intervals... More about our weather records

Advertising

19°19'N, 99°04'W Weather History for the Previous 24 Hours

Scroll right to see more
 ConditionsComfort  
Time TempWeatherWind HumidityBarometerVisibility
11:52 am
Fri, Jul 19
68 °FScattered clouds.8 mph60%30.36 "Hg6 mi
10:54 am66 °FPartly sunny.7 mph60%30.37 "Hg6 mi
10:38 am63 °FPartly sunny.5 mph73%30.37 "Hg6 mi
9:54 am63 °FPartly sunny.6 mph73%29.93 "Hg6 mi
8:46 am61 °FScattered clouds.6 mph77%30.35 "Hg6 mi
7:49 am59 °FBroken clouds.3 mph82%30.34 "Hg8 mi
6:45 am57 °FPartly cloudy.6 mph88%29.88 "Hg6 mi
5:45 am57 °FPartly cloudy.No wind88%30.33 "Hg7 mi
4:40 am57 °FOvercast.3 mph88%30.34 "Hg8 mi
3:50 am57 °FPassing clouds.No wind88%29.83 "Hg10 mi
2:40 am57 °FPassing clouds.6 mph88%30.35 "Hg12 mi
1:45 am57 °FPartly cloudy.No wind88%30.37 "Hg10 mi
1:16 am57 °FOvercast.5 mph88%30.38 "Hg7 mi
12:45 am57 °FLight rain. Mostly cloudy.10 mph94%29.91 "Hg5 mi
12:05 am57 °FRain. Mostly cloudy.7 mph94%30.41 "Hg4 mi
11:45 pm
Thu, Jul 18
57 °FThunderstorms. Mostly cloudy.5 mph94%30.41 "Hg4 mi
10:45 pm57 °FThunderstorms. Mostly cloudy.9 mph94%30.38 "Hg4 mi
10:16 pm57 °FThunderstorms. Mostly cloudy.8 mph88%30.37 "Hg3 mi
9:54 pm57 °FThunderstorms. Mostly cloudy.9 mph88%30.37 "Hg4 mi
9:23 pm57 °FThunderstorms. Mostly cloudy.8 mph88%30.35 "Hg5 mi
8:48 pm57 °FThunderstorms. Mostly cloudy.12 mph88%30.33 "Hg5 mi
8:10 pm63 °FThunderstorms. Mostly cloudy.15 mph73%30.30 "Hg5 mi
7:46 pm63 °FThunderstorms. Mostly cloudy.14 mph73%30.28 "Hg5 mi
6:50 pm63 °FThunderstorms. Mostly cloudy.15 mph64%29.80 "Hg5 mi
6:40 pm61 °FThunderstorms. Mostly cloudy.12 mph77%30.24 "Hg5 mi
6:31 pm59 °FThunderstorms. Mostly cloudy.13 mph82%30.25 "Hg4 mi
6:17 pm63 °FHail. Mostly cloudy.16 mph64%30.25 "Hg4 mi
5:49 pm72 °FMostly cloudy.12 mph44%30.24 "Hg6 mi
4:45 pm72 °FPartly sunny.6 mph41%30.26 "Hg5 mi
3:46 pm73 °FBroken clouds.12 mph38%29.75 "Hg5 mi
2:45 pm73 °FBroken clouds.12 mph38%30.32 "Hg5 mi
1:47 pm72 °FScattered clouds.10 mph47%30.35 "Hg5 mi
Weather by CustomWeather, © 2019

See weather overview